This is the latest recevied weather packets stored in our database for station/object JO1YDG-13. If no packets are shown the sender has not sent any weather packets the latest 1 day(s).
| Time | Temp. | Humidity | Pressure | Rain* | Wind** | Luminosity | Snow |
|---|---|---|---|---|---|---|---|
| 1778035085 | 16.67° C | 54% | 993.5 hPa | 0 mm | 0.89 m/s, 212° | - | - |
| 1778034784 | 17.22° C | 54% | 993.5 hPa | 0 mm | 0.89 m/s, 226° | - | - |
| 1778034483 | 17.22° C | 55% | 993.5 hPa | 0 mm | 1.34 m/s, 133° | - | - |
| 1778034183 | 17.22° C | 54% | 993.8 hPa | 0 mm | 1.34 m/s, 153° | - | - |
| 1778033885 | 17.22° C | 54% | 993.8 hPa | 0 mm | 0.89 m/s, 112° | - | - |
| 1778033585 | 17.22° C | 54% | 993.9 hPa | 0 mm | 1.34 m/s, 334° | - | - |
| 1778033284 | 16.67° C | 55% | 993.9 hPa | 0 mm | 0.89 m/s, 224° | - | - |
| 1778032984 | 16.67° C | 57% | 993.9 hPa | 0 mm | 0.89 m/s, 118° | - | - |
| 1778032684 | 16.11° C | 58% | 994.2 hPa | 0 mm | 0.89 m/s, 314° | - | - |
| 1778032384 | 16.11° C | 58% | 994.2 hPa | 0 mm | 0.89 m/s, 3° | - | - |
| 1778032084 | 16.11° C | 58% | 994.3 hPa | 0 mm | 1.34 m/s, 321° | - | - |
| 1778031783 | 15.56° C | 58% | 994.3 hPa | 0 mm | 0.89 m/s, 260° | - | - |
| 1778031483 | 16.11° C | 58% | 994.5 hPa | 0 mm | 1.34 m/s, 24° | - | - |
| 1778031183 | 15.56° C | 60% | 994.5 hPa | 0 mm | 0.89 m/s, 13° | - | - |
| 1778030883 | 15.56° C | 60% | 994.5 hPa | 0 mm | 0.89 m/s, 325° | - | - |
| 1778030583 | 15° C | 61% | 994.7 hPa | 0 mm | 0.89 m/s, 346° | - | - |
| 1778030283 | 14.44° C | 62% | 994.7 hPa | 0 mm | 0.45 m/s, 201° | - | - |
| 1778029984 | 14.44° C | 63% | 994.9 hPa | 0 mm | 0.89 m/s, 131° | - | - |
| 1778029683 | 14.44° C | 63% | 994.9 hPa | 0 mm | 0.45 m/s, 301° | - | - |
| 1778029384 | 14.44° C | 62% | 994.9 hPa | 0 mm | 0.89 m/s, 298° | - | - |
| 1778029084 | 15° C | 62% | 995 hPa | 0 mm | 0.45 m/s, 118° | - | - |
| 1778028784 | 15° C | 63% | 995 hPa | 0 mm | 0.89 m/s, 74° | - | - |
| 1778028484 | 14.44° C | 63% | 995.1 hPa | 0 mm | 0 m/s | - | - |
| 1778028184 | 14.44° C | 64% | 995.1 hPa | 0 mm | 0.45 m/s, 112° | - | - |
| 1778027883 | 14.44° C | 65% | 995.3 hPa | 0 mm | 0.89 m/s, 64° | - | - |
* Rain latest hour (hover to see other rain measurements)
** Current wind speed in m/s (hover to see current wind gust speed)